Home > Weather > Gross-Gerau > Past weeks

Flag for Germany Weather for the Past 2 Weeks in Gross-Gerau, Hesse, Germany

Now
45 °F

Passing clouds.


Feels Like: 37 °F
Forecast: 40 / 50 °F
Wind: 18 mph from Southwest

Location: Frankfurt-M-Flughafen Airport

Current Time: Feb 8, 2016 at 9:07:57 PM

Latest Report: Feb 8, 2016 at 8:20 PM


Visibility: N/A

Pressure: 29.53 "Hg

Humidity: 71%

Dew point: 36 °F

Location of Gross-GerauLocation

Historic Weather in Gross-Gerau — Graph

°F

Gross-Gerau Temperature Yesterday

Maximum temperature yesterday: 50 °F (at 11:20 AM)
Minimum temperature yesterday: 36 °F (at 1:20 AM)
Average temperature yesterday: 43 °F

High & Low Weather Summary for the Past Weeks

 TemperatureHumidityPressure
High57 °F (Feb 1, 3:50 AM)100% (Jan 24, 7:20 PM)30.45 "Hg (Jan 24, 7:20 PM)
Low28 °F (Jan 29, 4:50 AM)54% (Jan 25, 3:50 PM)29.42 "Hg (Feb 8, 1:20 PM)
Average45 °F80%30.08 "Hg
* Reported Jan 24 7:20 PM — Feb 8 7:50 PM, Gross-Gerau, Weather by CustomWeather, © 2016

Note: Actual official high and low records may vary slightly from our data, if they occured in-between our weather recording intervals... More about our weather records

Advertising

Gross-Gerau Weather History for the Previous 24 Hours

 ConditionsComfort  
Time TempWeatherWind HumidityBarometerVisibility
7:50 PM
Mon, Feb 8
45 °FClear.16 mph71%29.53 "Hg10 mi
7:20 PM43 °FPassing clouds.18 mph76%29.53 "HgN/A
6:50 PM45 °FClear.23 mph71%29.53 "Hg10 mi
6:20 PM45 °FPassing clouds.24 mph71%29.50 "HgN/A
5:50 PM45 °FSprinkles. Passing clouds.26 mph71%29.47 "HgN/A
5:20 PM43 °FPartly sunny.18 mph81%29.47 "HgN/A
4:50 PM43 °FSprinkles. Partly sunny.18 mph87%29.47 "HgN/A
4:20 PM43 °FStrong thunderstorms. Partly sunny.24 mph87%29.50 "Hg1 mi
3:50 PM43 °FThunderstorms. Broken clouds.29 mph87%29.47 "Hg2 mi
3:20 PM50 °FSprinkles. Broken clouds.20 mph71%29.45 "HgN/A
2:50 PM50 °FSprinkles. Partly sunny.21 mph71%29.45 "HgN/A
2:20 PM50 °FSprinkles. Partly sunny.20 mph76%29.45 "HgN/A
1:50 PM50 °FSprinkles. Partly sunny.24 mph76%29.45 "HgN/A
1:20 PM48 °FLight rain. Broken clouds.22 mph82%29.42 "HgN/A
12:50 PM48 °FLight rain. Partly sunny.25 mph87%29.45 "HgN/A
12:20 PM48 °FLight rain. Partly sunny.16 mph87%29.45 "HgN/A
11:50 AM48 °FPartly sunny.16 mph82%29.45 "HgN/A
11:20 AM46 °FLight rain. Partly sunny.14 mph87%29.47 "HgN/A
10:50 AM50 °FLight rain. Partly sunny.17 mph71%29.47 "HgN/A
10:20 AM48 °FPartly sunny.17 mph71%29.47 "HgN/A
9:50 AM46 °FPartly sunny.17 mph76%29.47 "HgN/A
9:20 AM46 °FLight rain. Partly sunny.20 mph76%29.50 "HgN/A
8:50 AM46 °FLight rain. Partly sunny.20 mph71%29.50 "HgN/A
8:20 AM46 °FPartly sunny.21 mph66%29.50 "HgN/A
7:50 AM46 °FPartly sunny.21 mph66%29.53 "HgN/A
7:20 AM46 °FPassing clouds.21 mph66%29.53 "HgN/A
6:50 AM45 °FPassing clouds.21 mph71%29.56 "HgN/A
6:20 AM45 °FPassing clouds.21 mph71%29.59 "HgN/A
5:50 AM45 °FPassing clouds.17 mph71%29.59 "HgN/A
5:20 AM45 °FPassing clouds.17 mph71%29.59 "HgN/A
4:20 AM43 °FPassing clouds.16 mph76%29.65 "HgN/A
3:50 AM45 °FPassing clouds.14 mph71%29.65 "HgN/A
2:50 AM43 °FPassing clouds.8 mph81%29.68 "HgN/A
2:20 AM43 °FPassing clouds.13 mph81%29.68 "HgN/A
1:50 AM43 °FPassing clouds.12 mph81%29.71 "HgN/A
1:20 AM43 °FPartly cloudy.14 mph81%29.71 "HgN/A
12:50 AM43 °FPassing clouds.16 mph81%29.74 "HgN/A
12:20 AM43 °FPassing clouds.12 mph81%29.74 "HgN/A
11:20 PM
Sun, Feb 7
43 °FPassing clouds.12 mph81%29.77 "HgN/A
10:50 PM43 °FPassing clouds.13 mph81%29.77 "HgN/A
10:20 PM45 °FPartly cloudy.13 mph81%29.77 "HgN/A
9:50 PM45 °FPassing clouds.12 mph81%29.77 "HgN/A
9:20 PM45 °FPartly cloudy.14 mph81%29.77 "HgN/A
Weather by CustomWeather, © 2016

See weather overviewHow to use our weather pages